Вернуться в каталог

QIANFAN-180

АктивенСвязьPO
NORAD 69397·PAYLOAD·🇨🇳 China

Запущен Jun 4, 2026 с Taiyuan Satellite Launch Center

Loading…

Ближайшие Пролёты (ближайшие 24 часа)

TLE

СвежийSource: Space-Track

Эпоха: Sep 14, 2026, 21:28 UTC

1 69397U 26124R   26257.89446455  .00000133  00000-0  18710-3 0  9993
2 69397  89.0052 352.5197 0001868  95.6221 264.5143 13.51021291 14184

Отслеживайте QIANFAN-180 в реальном времени с AllMySat

Download on the App Store